Wind_Speed
18 19 20 19 18 16 14 13 12 12 11 10 9 8 7 6 5 6 6 8 9 10 11 11 11 12 12 12 10 9 9 10 12 12 12 12 12 13 14 15 15 15 16 18 19 20 21 22 22 22 21 20 20 21 21 22 22 23 23 24 25 26 27 27 27 29 30 31 33 33 34 34 34 34 33 35 36 36 37 38 38 38 38 38 37 37 37 37
18 19 19 19 18 16 13 12 11 11 10 9 8 6 4 4 5 5 6 6 6 6 7 8 8 9 9 8 6 5 6 8 10 11 12 12 13 14 14 14 15 16 17 18 19 20 21 21 21 21 20 20 21 21 22 23 24 24 25 25 27 27 27 28 28 29 30 31 33 33 33 33 32 31 31 34 35 34 36 36 37 37 38 38 38 38 39 39
17 18 19 18 17 15 13 11 10 10 8 7 5 3 3 4 5 5 5 5 4 4 6 7 7 7 7 6 6 7 8 9 11 13 13 14 14 14 14 14 15 16 17 18 18 18 18 18 19 20 21 22 23 23 24 25 25 25 26 26 26 27 26 27 28 28 30 31 31 32 32 32 31 30 31 34 35 34 35 35 36 37 38 38 39 39 39 40
17 17 17 17 15 13 11 10 9 8 7 5 4 3 4 4 5 5 5 5 5 6 7 7 7 7 7 7 8 9 10 11 13 14 14 14 13 13 14 15 15 16 17 17 17 17 18 19 20 21 22 22 23 24 24 24 25 25 25 25 26 27 26 27 28 29 30 30 30 31 32 32 31 32 33 34 34 34 35 35 35 36 36 37 37 37 37 38
17 17 16 15 13 12 10 9 7 6 6 5 4 4 4 5 5 5 5 6 6 7 7 8 8 8 9 9 10 11 11 12 12 13 13 13 13 14 14 15 15 15 16 17 18 18 19 19 20 21 21 22 23 23 23 24 24 25 25 26 27 27 27 28 29 30 30 30 30 30 31 32 32 33 33 33 34 34 34 34 35 34 34 34 34 35 35 36
17 16 15 13 12 10 9 7 7 6 6 6 5 4 4 5 5 5 5 6 7 7 8 8 9 9 10 11 11 11 11 11 11 11 12 12 13 14 14 14 15 15 16 17 18 18 18 19 20 20 21 22 23 24 24 24 25 25 26 26 27 27 28 29 29 30 30 30 30 30 31 32 33 33 33 34 34 34 34 35 35 35 35 35 35 36 36 37
16 15 14 12 11 9 8 8 7 7 6 6 5 4 4 4 4 5 5 6 7 8 8 9 10 11 11 11 11 10 10 10 10 11 12 12 13 14 14 15 15 15 16 17 17 18 19 19 20 21 22 22 23 24 24 25 25 25 26 26 26 26 27 28 29 30 30 31 30 31 31 32 33 33 34 35 35 36 37 37 37 38 38 38 38 39 39 39
15 14 13 11 10 9 9 9 8 7 7 5 4 3 3 3 4 5 5 6 7 8 9 10 10 10 10 10 9 9 9 10 11 11 12 13 14 14 15 15 15 16 17 18 18 19 19 20 20 21 22 22 23 24 24 24 25 25 25 26 26 26 27 28 29 30 31 32 32 33 33 34 35 36 36 37 38 39 40 40 40 40 40 41 41 41 41 41
15 14 13 11 11 10 10 9 8 7 5 4 3 2 3 3 4 4 6 7 8 9 9 9 9 8 8 8 9 9 10 11 12 13 14 14 14 15 15 15 16 17 18 18 19 19 19 19 20 21 22 22 23 23 23 24 24 25 25 26 27 28 28 29 30 32 33 34 35 36 37 37 38 39 39 39 40 40 40 40 41 41 42 42 43 43 43 43
15 14 13 12 11 11 10 8 7 5 4 3 2 2 2 3 4 5 6 7 8 8 8 7 7 7 8 8 10 10 11 13 13 14 14 14 15 15 16 16 17 17 18 18 18 18 19 19 20 20 21 21 22 22 23 24 25 26 27 27 29 30 30 31 33 34 35 36 38 38 39 39 39 40 40 40 39 40 40 41 41 42 43 44 44 45 44 44
15 14 14 12 11 10 9 7 6 4 3 2 2 2 2 3 4 5 6 6 6 6 6 6 7 8 9 10 11 12 12 13 13 13 14 14 15 15 15 16 16 17 17 18 18 18 18 18 19 20 20 21 22 23 24 25 26 27 28 30 31 31 32 34 35 36 37 37 38 39 39 38 38 39 39 39 40 40 41 42 43 43 44 45 46 46 46 46
15 14 13 12 10 9 7 6 5 4 3 2 2 2 2 3 4 4 4 4 4 5 6 7 9 10 11 11 11 12 12 11 12 13 14 14 15 15 16 16 16 17 16 16 16 17 17 18 19 20 21 22 23 23 25 26 27 29 30 31 32 32 33 34 35 36 37 38 38 39 39 38 37 38 39 39 40 41 42 42 43 44 45 46 47 48 48 49
15 14 12 11 10 8 7 5 4 3 2 2 2 1 2 3 3 3 3 4 5 7 8 10 11 11 11 10 10 11 11 12 13 14 14 15 15 16 16 16 15 15 15 16 16 17 17 18 19 20 22 23 23 24 26 27 28 30 30 31 32 33 34 34 35 36 36 37 38 39 40 39 38 38 39 40 40 41 42 43 43 44 46 47 48 49 50 51
14 13 12 10 9 7 6 5 4 3 2 1 0 1 2 3 3 4 5 7 8 9 11 11 11 11 10 10 11 12 12 12 13 14 15 15 15 15 15 15 15 16 16 16 17 18 19 20 22 23 24 25 25 26 28 29 29 30 30 31 32 33 33 33 34 35 35 35 36 37 39 40 39 39 40 40 41 42 43 44 45 47 48 50 51 52 52 53
14 12 11 9 8 7 6 4 3 2 1 1 2 4 5 5 6 7 9 10 10 10 11 11 11 10 10 11 11 12 12 12 13 14 14 14 14 14 14 16 16 17 17 18 19 20 22 23 25 26 26 26 26 27 28 29 29 30 30 30 30 31 32 32 32 33 34 34 35 35 38 39 39 39 40 42 43 45 46 48 50 51 52 53 53 53 53 53
13 12 10 9 8 6 5 4 3 3 4 5 6 7 8 9 10 10 11 10 10 10 10 11 11 10 10 11 10 10 11 13 13 14 14 13 14 15 15 17 18 19 20 21 23 24 25 26 26 27 27 27 27 28 29 29 29 29 29 29 29 30 31 30 31 31 33 34 35 36 37 39 39 40 42 44 47 49 51 52 53 54 54 54 54 54 54 55
12 11 10 8 7 6 5 4 5 6 8 8 9 10 10 11 11 11 11 10 10 10 11 11 10 10 10 10 10 11 12 13 14 14 14 15 16 17 18 20 21 22 23 24 25 26 26 27 28 28 28 28 29 29 29 28 27 27 27 28 28 29 30 31 31 32 33 34 36 37 38 39 40 42 45 47 49 50 51 51 52 53 53 53 54 55 56 56
12 11 10 8 8 7 7 8 9 10 11 11 11 11 11 11 11 11 11 10 10 11 11 10 10 11 11 11 12 13 13 13 14 15 16 18 18 20 22 23 24 24 26 27 27 28 29 29 30 31 30 31 31 30 29 28 28 27 28 29 29 30 30 32 34 34 35 36 36 37 39 41 42 45 47 48 49 50 51 52 52 53 53 54 55 56 57 59
12 11 10 10 10 10 11 12 12 12 13 13 13 12 11 11 11 11 10 9 11 11 11 11 12 12 12 12 13 14 14 15 16 17 18 20 21 22 24 25 26 27 28 29 30 31 31 32 32 32 32 33 33 32 32 32 31 31 32 32 33 33 34 35 36 37 38 37 38 39 41 44 46 48 50 51 52 53 54 55 56 57 57 58 59 61 62 64
14 13 13 13 14 14 14 14 14 14 14 14 13 11 10 10 10 10 9 10 12 12 11 12 12 13 13 14 14 15 16 18 18 18 20 22 24 25 26 27 28 29 30 31 32 32 32 32 33 33 33 34 34 35 35 34 34 34 34 34 35 36 37 38 38 39 41 41 41 43 45 47 50 51 53 55 56 57 58 59 60 61 62 63 64 65 66 67
17 17 17 17 17 17 16 16 16 15 14 13 12 12 11 11 10 9 10 12 12 11 11 12 13 14 15 16 16 17 17 18 20 21 22 24 26 27 28 29 30 30 31 32 32 32 33 33 33 34 34 35 35 35 35 35 35 36 36 37 37 39 39 40 41 42 44 45 46 48 49 51 53 54 56 58 59 61 62 63 63 63 65 66 67 68 69 70
21 21 21 20 19 18 18 17 16 15 14 13 12 13 12 12 11 11 12 13 12 12 12 13 14 16 17 17 18 18 19 20 23 25 25 27 28 29 30 30 31 31 31 32 32 33 34 34 35 35 36 36 36 36 36 35 36 37 38 39 40 41 43 43 44 45 47 49 50 51 52 53 55 56 57 59 61 63 64 64 65 66 67 68 69 71 72 73
24 23 22 21 20 19 18 17 15 14 14 13 12 12 12 12 13 14 14 14 14 14 13 14 15 16 17 19 19 20 22 23 25 26 27 28 29 29 30 31 31 32 32 33 34 35 36 36 36 37 37 37 37 37 36 37 38 39 40 41 42 43 45 45 45 47 49 51 52 54 54 55 57 58 59 61 62 63 64 66 67 68 69 70 72 73 75 76
25 24 23 21 20 19 18 17 16 15 13 13 12 13 14 15 15 15 15 14 15 15 14 15 16 16 17 20 21 21 23 24 25 27 27 28 30 30 31 32 32 33 34 35 36 36 37 37 38 38 38 38 38 38 37 38 40 41 41 42 43 44 45 46 47 48 50 52 54 57 57 57 59 60 60 62 65 66 67 69 70 70 72 73 75 76 78 78
25 24 22 21 19 18 18 17 16 14 13 13 14 15 16 16 16 16 15 14 14 14 15 16 17 18 18 20 22 23 24 26 27 28 29 30 31 32 32 32 33 34 34 35 35 36 37 38 38 39 38 39 39 38 39 39 41 42 42 42 44 44 45 46 48 50 52 54 56 59 60 60 61 65 66 67 69 70 70 72 73 74 76 77 78 79 80 81
24 23 21 20 19 19 18 16 15 14 14 16 17 17 17 17 17 16 15 14 14 14 16 17 17 19 20 21 24 24 26 28 29 29 30 31 31 31 31 32 32 33 33 34 35 35 36 37 37 38 38 39 38 38 38 39 40 41 42 43 45 46 47 48 50 52 53 55 56 59 63 65 66 70 72 72 73 73 73 75 76 77 79 79 81 82 82 82
23 22 21 21 20 19 18 16 16 17 17 18 19 18 18 17 16 15 14 14 15 16 17 18 19 21 22 23 25 26 27 29 30 30 30 31 30 31 31 31 31 32 33 34 34 35 35 36 36 37 38 38 38 38 38 40 41 42 44 46 47 48 49 50 51 53 54 55 58 61 66 69 71 72 74 74 75 76 76 77 79 80 81 81 82 83 83 82
23 23 22 21 20 18 18 19 19 20 20 20 20 18 18 17 15 15 14 14 17 17 17 19 21 23 24 25 27 27 28 29 30 29 29 30 30 30 30 31 31 31 32 33 34 34 34 35 36 36 37 37 38 39 40 42 43 45 46 48 49 49 50 52 53 55 57 58 61 64 67 71 73 73 74 76 77 78 79 80 81 81 81 82 83 84 84 83
24 23 21 20 19 19 20 21 22 21 21 20 19 18 17 16 16 15 14 15 18 20 21 22 24 26 26 27 27 28 28 28 29 29 29 29 29 30 31 32 32 32 32 32 32 34 34 35 36 37 37 38 40 41 42 44 45 47 48 49 51 52 53 55 57 58 60 60 61 63 67 72 74 73 75 78 79 80 81 81 82 82 84 86 86 86 86 85
22 21 20 20 21 22 22 22 22 21 20 19 18 17 16 15 15 15 16 17 19 21 23 24 25 27 27 27 27 27 28 28 28 28 28 29 29 30 31 32 32 32 32 32 32 33 34 35 36 37 38 40 41 43 44 45 47 49 51 52 53 55 56 58 59 60 61 60 60 63 67 72 75 75 76 78 79 80 81 82 83 86 89 90 89 88 88 89
20 20 21 22 23 23 23 22 21 20 19 18 17 16 15 15 15 16 18 19 20 21 23 24 25 25 25 26 26 26 27 27 27 27 27 28 29 29 30 31 31 32 32 33 33 33 35 36 37 38 40 41 43 45 47 49 50 52 53 54 55 56 57 58 59 60 61 61 62 64 68 71 75 76 77 78 80 81 82 84 87 89 92 92 91 89 89 91
21 22 24 25 24 23 22 21 19 18 17 16 15 15 15 16 17 18 19 19 21 22 23 23 24 24 25 26 26 26 27 27 27 28 27 29 30 31 32 32 33 34 35 35 36 36 37 38 40 41 42 44 46 48 50 51 52 53 54 56 57 58 58 59 61 62 63 63 64 66 70 72 74 76 78 80 81 83 84 87 90 92 93 93 92 90 88 90
23 25 25 24 23 22 20 19 18 17 16 16 16 16 16 17 18 18 19 20 22 23 23 23 24 25 26 26 26 27 28 28 29 30 30 32 33 33 35 35 36 37 37 37 38 38 39 40 42 43 44 46 48 49 51 52 53 54 56 58 59 60 61 63 65 66 67 67 68 69 72 75 76 78 80 81 82 84 86 88 91 92 93 93 92 89 87 88
26 26 24 23 21 20 19 18 17 16 17 17 16 16 17 18 18 18 19 21 23 23 24 25 26 27 27 27 27 28 29 29 31 32 33 35 35 35 37 37 38 39 39 39 40 40 41 41 43 44 45 46 48 49 50 52 54 55 56 58 59 60 63 65 67 69 72 74 73 73 75 77 79 81 82 83 84 86 88 90 92 93 94 93 91 88 87 87
26 25 23 21 20 18 17 17 17 17 18 18 16 16 18 18 18 19 21 22 23 24 25 26 28 28 28 28 28 29 31 32 33 34 35 37 37 38 39 39 40 40 40 41 41 41 41 42 43 44 44 46 47 48 50 52 54 55 56 57 59 60 62 65 67 69 73 77 77 76 76 78 80 82 84 84 86 88 89 91 94 95 96 94 90 87 87 85
25 23 21 20 18 16 16 16 16 19 19 17 16 18 19 18 20 21 21 22 24 25 26 26 27 28 28 29 29 31 32 33 35 37 37 39 39 40 41 41 42 42 42 42 43 43 43 42 43 43 44 46 48 49 51 51 53 55 57 58 60 61 63 66 69 70 73 77 78 78 80 82 82 82 84 85 87 90 92 94 95 96 96 92 88 87 85 82
23 21 19 17 16 15 15 16 18 20 17 15 18 19 19 18 20 21 22 23 24 25 26 27 28 29 30 31 32 33 34 35 37 38 39 40 40 41 42 42 43 43 44 44 44 44 45 44 43 44 46 47 48 50 51 51 53 56 58 59 60 63 66 69 71 72 74 78 80 81 84 86 84 84 85 87 89 93 95 96 95 94 93 90 87 85 81 78
21 19 17 16 15 14 16 18 20 18 16 18 19 19 18 18 19 21 22 23 24 26 27 28 29 31 33 34 35 36 36 37 38 39 40 41 41 42 43 43 44 44 45 45 45 45 46 46 45 46 47 48 49 51 53 54 54 56 58 60 62 65 68 69 70 72 75 80 84 85 86 87 85 85 88 90 92 95 96 95 95 93 91 88 84 81 77 73
18 16 16 15 14 16 17 17 17 17 19 20 18 16 17 18 19 21 23 24 25 26 27 29 31 33 35 37 37 38 38 38 39 40 41 42 42 43 44 44 45 45 46 46 46 46 47 48 47 46 47 49 51 52 54 55 55 57 59 61 64 66 68 69 69 71 75 80 86 88 89 89 86 87 92 94 95 96 95 95 94 92 89 84 79 76 73 69
17 16 15 14 15 17 15 13 15 20 20 18 15 15 17 18 20 22 23 24 26 27 29 31 33 35 36 38 38 39 39 39 40 41 41 43 43 43 44 45 45 46 46 46 46 46 47 49 49 48 48 49 51 52 53 54 55 58 60 62 65 67 69 71 70 70 74 80 85 89 92 91 87 89 94 94 95 95 94 94 93 89 85 79 75 72 68 63
17 15 14 14 16 14 11 13 19 20 17 15 15 15 16 18 20 21 23 25 27 28 30 32 34 36 37 38 39 39 40 41 41 42 42 43 44 44 45 46 46 47 47 47 47 47 48 49 50 50 49 49 50 51 52 53 56 58 60 62 66 68 70 72 72 72 73 77 82 88 93 93 89 90 93 92 95 95 92 91 89 85 80 74 71 67 62 55
16 14 14 15 15 12 12 17 19 17 15 15 16 16 17 19 20 21 23 25 28 30 32 33 35 37 38 39 40 41 41 42 43 43 43 44 45 45 46 47 47 47 48 48 48 49 49 50 50 51 51 51 51 52 54 55 58 61 63 64 66 68 70 72 74 76 77 78 82 88 94 94 90 91 92 93 96 93 89 88 85 80 75 69 66 62 54 47
15 13 14 14 12 12 16 17 15 15 16 16 17 18 19 19 20 22 24 26 29 32 33 34 36 37 39 40 41 41 42 43 44 44 44 45 46 47 47 48 48 49 49 49 49 50 50 51 52 52 52 52 52 54 56 57 58 60 63 64 66 67 69 71 74 78 80 82 85 90 96 96 93 92 94 94 94 91 88 86 82 75 69 65 61 56 48 41
14 13 14 14 13 15 17 15 14 16 18 18 19 19 19 20 21 23 26 28 31 33 35 36 37 39 40 41 41 42 43 44 45 45 46 47 47 48 48 49 50 50 50 50 51 51 51 53 53 54 55 55 55 56 57 57 56 58 60 64 67 68 70 72 75 78 82 85 88 91 97 99 97 94 94 94 93 90 86 82 77 70 64 60 56 50 42 36
15 15 15 15 16 17 15 13 14 17 19 20 21 21 21 22 23 25 27 30 32 35 36 37 38 39 40 41 42 42 44 45 46 47 48 48 49 50 50 51 51 51 51 51 52 52 52 53 54 55 57 58 58 59 59 59 59 60 61 64 68 70 72 74 76 80 84 88 89 91 96 101 99 96 96 95 93 89 85 79 71 63 58 54 50 45 38 35
16 15 15 15 15 14 13 13 16 18 20 22 22 23 23 24 25 27 29 32 34 36 37 37 38 40 41 42 43 44 45 46 48 49 49 49 50 51 52 52 53 52 52 52 52 52 53 54 54 54 55 57 57 58 59 60 61 63 64 65 67 71 75 76 78 81 85 90 93 91 94 100 100 97 97 95 91 87 83 76 67 58 53 48 45 42 38 36
15 14 14 14 14 13 13 15 18 20 21 23 24 25 25 26 27 29 31 33 35 36 37 38 39 40 42 44 45 46 46 48 49 50 51 51 52 52 53 54 54 53 53 53 53 53 54 54 54 53 53 55 56 57 58 61 63 65 66 66 67 71 77 79 80 82 85 92 96 94 94 98 100 99 98 94 90 86 81 72 61 54 49 44 42 40 37 36
15 14 12 12 14 15 15 17 19 21 22 24 26 27 27 27 28 30 32 34 36 37 38 38 39 41 44 46 47 47 48 49 50 51 52 52 53 54 54 55 55 55 54 54 54 54 55 55 55 54 54 55 56 58 60 62 64 65 66 66 69 73 77 80 81 82 86 90 94 95 96 98 99 99 97 92 88 84 77 66 55 48 44 39 36 36 36 36
14 15 15 14 14 16 17 19 20 22 24 26 27 28 28 29 29 31 34 35 36 38 38 39 40 42 45 47 48 48 49 50 51 52 53 54 54 55 55 56 56 56 56 55 55 55 56 56 57 56 56 57 59 59 61 63 64 65 66 68 71 74 77 80 81 82 86 89 91 93 96 97 98 97 94 89 84 79 71 60 50 45 39 34 32 32 34 35
13 15 16 16 16 17 19 20 21 23 25 27 28 29 29 29 31 32 34 36 37 38 39 40 41 43 45 47 48 49 50 51 52 53 54 55 55 56 56 57 57 58 57 57 56 57 57 58 58 59 59 59 61 60 61 64 65 66 68 71 73 75 77 81 82 82 88 91 92 94 97 99 98 95 92 87 82 77 68 54 45 41 36 32 31 30 31 33
14 15 16 18 18 18 20 22 23 24 26 28 29 29 29 30 32 33 35 37 38 39 40 41 42 44 46 47 48 50 51 52 53 53 54 55 55 56 57 58 59 59 59 59 58 58 59 60 61 63 63 62 62 62 63 66 68 69 71 73 75 76 79 82 82 83 88 93 95 97 99 99 98 95 92 87 80 75 65 50 41 39 36 34 35 34 35 37
16 17 17 19 20 20 21 23 24 25 27 28 29 30 30 31 32 35 37 39 40 40 41 42 43 45 46 47 49 50 51 53 53 54 55 55 56 57 59 60 60 60 60 60 61 61 61 63 64 65 66 65 65 65 66 68 70 71 71 73 77 79 81 84 83 84 88 91 95 98 99 98 97 94 91 87 79 74 63 47 40 42 42 42 42 44 45 46
Wind_Direction
195 194 194 196 199 202 206 211 218 225 231 236 241 251 263 275 283 286 283 286 294 299 298 294 293 296 308 319 314 291 282 288 292 294 299 305 306 302 299 299 300 302 303 305 306 306 307 307 306 305 305 305 304 302 301 301 300 299 300 298 295 293 293 293 293 292 290 290 290 289 289 290 292 293 294 292 290 292 291 290 290 290 290 290 290 290 289 288
191 189 189 191 195 198 202 208 216 223 229 237 245 256 268 273 271 268 270 282 298 311 307 298 298 305 315 328 334 320 300 295 293 294 298 299 298 298 298 300 303 307 308 309 309 310 309 309 309 310 311 311 310 308 307 306 304 303 303 301 299 298 299 298 296 295 294 293 293 293 294 295 297 298 297 294 293 294 294 294 294 293 292 292 291 290 288 287
184 183 184 187 190 193 199 206 214 220 228 237 245 252 251 247 248 250 261 271 277 294 302 303 306 307 313 321 323 316 307 303 299 299 301 299 298 300 302 305 308 311 312 312 313 313 313 314 317 317 317 317 315 313 311 308 307 306 305 303 302 302 302 301 299 298 297 297 298 298 297 298 300 299 297 295 294 295 295 296 295 294 293 291 291 290 289 288
175 175 177 180 184 190 198 205 212 218 224 231 231 227 226 231 240 248 254 259 267 284 294 298 300 301 308 313 312 308 304 304 302 302 303 303 305 308 311 314 316 317 318 319 320 320 322 323 323 321 319 318 316 314 311 310 309 308 307 306 305 304 303 302 300 300 299 300 300 300 298 298 298 297 296 296 295 293 293 294 294 293 292 291 291 290 289 289
168 168 170 174 180 188 195 201 205 210 213 213 211 209 218 232 244 249 253 265 277 288 292 292 295 302 308 307 307 305 304 307 306 306 309 313 317 319 321 322 322 324 327 329 329 329 329 327 324 321 319 316 314 312 311 311 310 309 308 307 306 305 303 302 301 300 300 301 301 301 300 298 297 297 296 296 295 294 293 292 291 291 290 289 288 287 286 285
164 163 164 168 174 179 183 187 188 192 194 193 194 201 219 235 245 254 265 276 282 287 291 295 301 304 306 305 306 307 310 316 317 317 321 324 326 327 328 328 330 333 335 335 334 332 329 325 323 320 317 315 314 314 313 312 310 309 308 307 306 305 303 302 302 301 302 302 302 302 302 301 299 299 298 297 296 295 293 292 290 289 287 286 285 285 284 284
157 156 157 159 162 164 167 170 173 177 178 179 186 200 220 238 252 264 274 279 283 290 296 302 305 306 308 310 313 317 321 326 328 330 333 335 336 337 338 338 338 338 337 335 332 329 326 324 323 321 320 318 317 316 315 313 312 311 310 309 308 306 305 305 305 305 305 304 303 303 302 300 299 298 297 296 295 294 293 291 290 289 288 287 287 286 285 285
150 149 149 150 151 154 159 162 165 167 168 174 184 202 225 244 258 269 279 287 295 302 305 307 308 309 315 320 326 330 332 336 341 344 347 350 350 348 347 344 340 337 335 332 329 328 327 327 326 324 323 321 320 318 317 317 316 315 314 312 310 309 308 306 306 306 305 303 302 301 300 298 298 297 296 295 294 294 293 292 292 291 290 290 289 289 288 287
145 144 143 144 148 154 156 158 159 160 164 171 184 207 231 250 266 281 293 304 310 311 312 313 317 323 327 331 337 341 345 353 357 359 358 357 355 351 346 342 338 335 332 330 330 330 329 329 328 327 325 324 323 322 322 321 319 318 315 313 311 309 308 306 305 305 303 302 301 301 300 300 300 299 298 297 296 295 295 294 294 293 293 292 291 291 290 289
142 142 144 147 151 154 154 153 153 156 161 169 190 219 247 270 286 299 308 314 314 316 320 324 333 339 342 350 356 359 4 7 5 2 360 356 352 346 341 339 336 334 332 332 333 333 334 334 333 332 330 328 326 324 323 321 319 318 315 312 310 309 307 306 305 304 304 303 303 303 303 304 303 301 300 300 299 298 298 297 297 296 296 295 295 294 292 291
142 144 145 148 151 152 151 150 152 157 163 177 211 249 273 290 302 311 318 320 323 328 334 342 355 0 7 12 11 11 11 10 6 360 355 350 347 342 340 338 336 335 334 336 339 339 340 338 335 333 330 327 324 322 321 320 319 317 315 312 310 310 310 309 308 308 308 307 306 305 305 306 304 302 302 302 302 302 302 301 300 300 299 298 297 296 295 293
143 145 145 148 152 152 152 154 158 165 173 201 237 266 288 309 322 330 335 341 350 356 360 10 18 21 22 17 12 13 12 8 1 354 349 346 344 342 341 340 339 340 341 343 344 342 340 336 333 330 327 325 323 321 321 320 319 317 315 313 312 313 312 311 311 310 309 307 307 306 307 308 306 304 305 304 304 304 304 304 302 301 299 298 297 296 295 294
143 145 147 150 153 154 157 161 166 174 194 217 241 289 326 347 360 11 20 20 23 26 28 31 30 28 24 16 15 14 8 3 355 349 346 344 343 343 345 345 345 348 348 347 344 340 337 334 331 329 327 325 323 321 322 320 319 317 315 314 313 314 314 313 311 309 309 308 308 309 309 310 309 306 306 306 306 305 304 303 302 300 299 298 297 297 296 295
144 146 149 152 156 159 164 168 174 187 200 210 312 23 40 52 56 52 47 43 42 41 38 35 31 28 20 13 14 9 1 355 349 347 346 345 348 351 354 353 351 351 350 345 341 337 335 332 330 330 327 325 324 322 322 320 319 317 316 315 314 313 312 312 310 309 309 309 310 309 309 310 309 307 306 306 306 305 304 303 301 300 300 299 298 297 295 294
145 147 151 155 160 165 168 169 175 179 154 100 84 83 80 73 65 58 54 50 48 45 42 37 30 23 14 10 8 1 354 350 349 352 354 356 0 359 356 354 349 347 347 343 339 336 333 331 330 328 325 324 324 321 320 319 319 318 317 314 310 308 307 308 308 308 308 308 307 306 306 306 307 306 305 305 305 304 304 304 303 303 301 300 298 296 295 294
145 148 153 159 164 163 162 160 152 131 111 103 97 89 80 71 66 60 57 54 51 47 41 33 25 20 16 12 5 357 356 357 1 6 6 4 2 357 353 351 348 344 342 339 336 334 331 329 327 325 324 323 321 320 321 320 318 316 312 308 304 304 305 306 306 306 307 306 305 304 304 305 306 306 305 305 305 305 305 304 303 302 300 299 298 297 295 295
145 149 155 158 156 150 145 140 128 117 108 99 91 84 77 73 69 64 60 56 51 44 37 29 23 23 20 11 7 10 11 11 12 11 7 1 357 354 349 346 343 340 337 334 332 331 328 325 324 324 324 323 324 324 321 317 313 308 306 306 305 306 307 308 309 308 308 307 304 304 304 304 305 306 306 306 305 305 304 303 301 300 299 298 297 296 296 295
146 149 150 146 141 138 134 126 117 109 101 94 87 82 78 75 72 67 60 52 49 44 37 30 23 24 23 20 23 24 20 15 11 7 1 355 349 348 346 342 338 335 334 331 328 328 327 326 326 326 327 327 327 323 318 314 313 312 312 313 312 312 312 312 312 310 308 307 305 304 304 303 305 307 308 308 308 307 306 305 304 302 301 299 299 298 298 298
142 142 140 137 133 128 121 114 107 100 95 90 85 82 79 76 72 63 56 54 52 44 32 26 28 33 34 34 32 26 19 11 5 360 355 351 345 342 341 338 334 333 332 329 328 329 328 327 328 330 330 329 326 324 322 321 320 320 319 317 317 317 316 314 312 310 308 307 306 306 306 308 310 311 311 311 311 310 309 307 306 305 304 303 303 303 303 303
137 136 132 127 122 116 111 105 100 95 90 87 84 81 78 73 68 62 61 58 48 37 30 33 40 42 39 35 27 19 14 6 358 352 347 346 343 340 337 333 332 331 330 329 329 329 328 328 330 331 330 328 327 326 326 324 322 321 320 319 320 318 316 314 313 311 309 309 309 309 311 312 313 314 313 313 313 311 310 309 308 307 306 306 306 306 306 305
129 126 122 118 114 109 106 101 96 93 89 86 82 77 73 71 70 65 61 53 42 40 44 46 46 40 32 26 20 12 6 358 352 349 344 342 341 338 334 333 332 331 329 329 329 327 329 330 331 330 329 329 329 328 326 324 322 321 321 321 319 315 314 313 312 311 310 311 313 313 314 314 314 314 314 314 314 312 311 310 309 309 308 308 308 308 307 307
121 119 116 113 110 107 103 98 95 93 88 83 81 80 78 75 71 64 58 54 50 53 52 45 38 32 26 19 13 5 359 354 349 346 343 341 338 334 333 333 333 331 330 329 329 330 332 332 331 330 330 330 329 328 325 323 322 322 321 319 316 314 313 312 312 312 313 315 315 315 315 315 315 315 315 314 314 313 312 312 311 311 311 310 309 309 308 307
117 115 114 110 108 104 101 98 94 89 85 85 88 87 81 73 69 65 62 61 57 53 46 37 29 23 18 12 5 358 355 351 343 340 340 337 334 334 334 334 333 333 332 332 333 334 333 332 331 330 330 330 328 326 324 323 322 322 319 316 314 313 313 313 314 316 316 316 316 315 316 316 316 316 316 316 315 314 314 313 313 312 311 311 310 309 308 307
115 113 111 108 106 103 100 96 90 88 90 90 87 81 73 69 70 68 65 61 55 47 38 31 22 16 11 4 357 352 348 343 338 339 338 335 336 338 338 336 336 336 335 335 335 334 333 332 331 330 330 329 327 326 324 323 322 320 317 315 315 315 315 316 317 318 317 317 317 317 317 319 318 317 318 318 318 317 317 315 314 313 312 311 311 310 308 307
112 110 108 107 105 102 98 95 94 95 91 84 80 77 75 72 70 67 61 54 48 40 30 24 15 9 4 357 352 347 341 340 341 341 339 339 341 341 339 338 338 337 337 336 335 333 333 331 330 329 328 326 325 325 324 322 320 318 317 317 317 317 317 318 318 319 319 319 320 319 318 320 320 320 322 322 321 320 318 316 315 314 313 313 312 310 308 306
109 108 107 106 103 99 97 97 96 92 86 82 80 79 77 73 67 61 54 43 37 32 23 16 8 3 358 352 349 345 342 344 344 344 344 344 343 341 340 340 339 338 337 336 335 334 332 330 329 327 326 325 325 323 322 320 319 318 319 320 319 320 320 320 320 320 321 321 320 320 321 322 324 324 324 323 321 320 318 317 316 315 314 313 312 310 308 306
108 107 104 102 99 97 96 94 90 87 86 85 82 78 73 68 61 53 43 31 27 24 17 9 2 358 355 350 349 348 348 348 348 347 346 345 343 342 341 340 339 338 338 337 335 334 331 330 328 327 326 325 323 322 321 321 322 322 323 323 323 322 321 321 320 320 321 322 323 325 326 325 325 325 324 323 321 320 319 317 316 316 315 313 311 309 307 306
105 103 101 99 97 95 92 89 89 89 88 84 79 74 67 60 52 44 33 22 20 16 8 3 359 357 356 354 353 353 353 351 350 349 347 345 344 343 342 341 340 340 339 336 333 332 331 330 329 328 326 324 324 324 324 325 326 325 325 325 324 323 322 321 322 323 324 326 328 329 328 324 324 325 323 322 322 320 319 318 317 316 314 312 310 309 308 308
102 100 98 96 94 95 94 93 92 89 84 80 74 68 61 53 45 36 24 16 15 11 4 1 359 358 359 358 356 355 355 352 351 350 348 347 346 344 343 343 342 341 338 334 332 332 332 331 330 329 327 327 327 327 328 327 327 327 327 327 326 325 325 325 325 326 326 328 329 329 326 322 322 324 324 323 324 323 321 320 318 316 313 312 312 312 312 310
99 98 96 95 98 99 98 94 90 85 80 74 67 60 53 46 38 28 19 14 10 6 4 2 0 0 360 358 357 356 355 354 353 352 350 349 348 346 344 344 342 339 336 335 334 333 333 332 332 331 330 330 330 329 329 328 328 329 329 329 329 327 327 327 326 326 325 327 328 327 324 321 321 324 324 325 324 323 321 319 317 315 314 314 314 314 314 311
99 98 98 100 101 100 97 91 86 80 74 67 60 54 45 38 32 22 15 11 5 4 5 3 2 1 359 357 357 357 357 356 355 353 350 349 347 346 344 343 339 337 336 337 335 335 335 334 334 335 333 332 332 331 331 331 331 331 330 329 329 328 328 327 325 324 323 326 329 326 323 321 321 323 324 323 322 321 319 317 315 315 314 314 315 316 314 311
100 101 103 103 100 97 93 87 81 74 66 58 50 46 36 29 26 18 11 7 4 5 5 4 3 360 358 357 357 358 359 359 358 356 354 352 350 349 347 345 342 341 341 340 338 338 337 336 337 337 336 334 334 333 332 332 331 331 330 328 328 328 328 326 324 323 323 326 328 326 323 322 321 323 323 322 321 319 318 317 317 316 316 316 317 317 315 312
104 106 105 102 98 94 88 81 75 66 58 48 38 35 30 24 22 15 9 6 5 5 4 3 2 359 358 358 357 359 0 360 359 358 357 355 354 352 349 348 346 345 344 343 341 339 339 339 338 338 338 337 335 332 331 331 330 330 329 328 328 327 327 326 325 324 323 326 329 327 324 322 322 324 324 323 321 319 319 319 318 317 317 317 319 318 314 311
108 107 103 99 94 88 82 75 66 56 48 38 28 28 29 23 18 12 9 8 6 6 4 1 1 360 359 359 359 360 0 0 360 359 358 356 355 352 350 349 347 346 345 344 342 341 340 340 339 338 337 335 333 331 330 330 330 330 329 328 327 327 327 326 325 325 324 326 329 328 325 325 325 326 325 323 322 322 322 320 319 318 318 319 319 316 313 311
108 104 100 94 87 80 72 63 54 47 40 28 22 28 28 21 15 13 12 10 7 6 4 2 1 2 0 360 0 0 360 0 360 359 358 356 355 352 350 349 347 346 346 344 343 343 340 338 338 337 335 333 331 330 331 331 329 328 328 328 327 326 325 324 324 326 325 325 327 327 325 324 326 327 326 325 325 324 323 322 320 320 320 321 320 315 313 312
104 100 95 88 81 73 61 50 42 39 32 21 24 30 24 17 16 16 15 12 10 8 6 5 4 3 2 1 1 1 0 360 359 358 358 356 355 352 350 349 348 347 346 345 344 343 341 339 337 335 334 333 332 331 331 329 328 328 328 328 326 325 324 325 326 326 325 324 325 326 324 325 328 329 328 328 327 326 325 324 322 322 322 321 318 315 315 315
101 97 92 86 76 64 51 40 33 30 24 23 30 27 19 18 20 20 17 14 12 10 7 7 5 4 3 2 1 1 0 359 358 357 357 356 354 353 351 349 348 347 346 345 344 343 341 340 337 334 334 334 333 331 330 330 331 330 328 326 325 326 327 328 328 327 326 324 325 326 326 328 332 332 330 330 328 327 326 325 323 323 321 320 318 317 317 316
97 93 87 78 67 56 45 32 24 23 27 31 29 22 18 22 24 22 19 15 12 9 7 6 5 4 3 2 1 0 360 359 358 357 356 355 354 353 351 349 348 347 346 345 344 342 341 340 338 336 335 334 333 332 331 332 333 329 326 326 327 328 328 328 329 329 328 326 325 327 328 331 334 333 331 331 329 328 327 324 323 322 321 320 319 318 317 317
91 85 77 66 55 47 37 22 18 28 34 30 22 19 22 25 24 21 17 13 10 8 6 5 5 4 3 2 0 360 359 358 357 356 355 354 353 352 350 349 349 348 346 345 343 342 340 339 339 337 335 334 334 333 332 332 330 328 328 328 329 328 327 327 328 329 329 328 328 327 328 334 337 334 332 332 331 329 326 324 323 323 322 321 320 318 318 318
82 72 63 54 44 37 23 11 25 35 31 21 18 23 25 23 21 17 13 10 8 6 5 5 5 4 3 1 360 359 358 357 356 355 354 354 352 351 350 349 349 348 347 345 343 342 340 339 339 339 337 334 333 333 332 330 328 329 329 329 329 328 327 327 328 330 331 331 330 328 329 336 339 335 333 333 330 329 327 325 324 323 322 322 321 320 320 320
72 59 47 40 33 22 10 22 33 31 22 18 21 24 22 19 16 11 9 7 6 5 5 5 4 3 1 0 359 358 357 357 356 355 354 353 352 351 350 349 349 348 347 345 343 342 340 339 339 339 337 336 334 332 331 331 330 330 331 331 329 328 328 327 328 330 331 332 331 328 330 337 339 335 334 331 329 329 328 325 325 324 324 324 323 323 323 322
59 43 31 27 21 14 25 34 32 25 20 21 21 20 18 13 9 7 6 5 5 5 5 3 3 2 0 360 359 357 357 356 355 354 353 352 351 350 350 349 349 348 347 346 344 342 341 340 339 339 338 336 334 333 334 335 334 333 333 332 329 328 329 329 330 332 333 332 331 330 332 338 339 335 333 331 330 331 328 326 327 328 328 327 325 325 324 323
44 29 24 23 19 30 42 36 26 24 24 21 19 17 12 7 6 5 4 4 4 4 3 3 2 1 360 359 358 357 356 356 355 354 353 352 351 350 350 350 349 349 348 346 344 343 341 339 339 339 338 337 336 336 337 338 336 333 332 330 329 329 329 329 331 333 333 333 334 334 334 337 339 336 333 332 332 331 329 329 331 331 330 328 326 326 326 324
37 29 29 30 33 43 43 31 24 26 24 21 19 14 8 5 4 4 3 4 4 3 2 2 1 1 360 359 358 357 356 355 354 354 353 352 351 351 350 350 350 350 349 347 346 344 341 339 337 337 337 338 338 338 338 339 336 333 330 330 331 331 330 330 332 333 334 335 336 336 335 337 340 337 333 333 333 333 332 332 333 333 331 328 326 327 327 325
42 36 35 36 39 43 38 24 22 24 22 20 16 10 6 4 4 4 4 3 2 2 2 1 1 0 359 358 358 357 356 355 354 354 353 352 351 351 351 350 351 350 349 348 347 345 343 341 337 336 336 336 337 337 337 337 335 333 333 333 333 331 331 332 334 336 336 335 337 338 336 337 340 337 333 335 336 335 334 335 335 333 331 330 328 328 330 329
45 39 37 36 38 38 30 19 18 21 20 16 11 8 6 4 4 4 3 2 1 1 1 0 360 359 359 358 357 357 356 355 354 354 353 352 352 351 351 351 351 351 350 349 347 346 344 342 340 337 335 335 335 335 334 333 333 334 335 335 334 331 332 334 336 338 337 335 338 341 338 337 339 337 335 337 339 337 336 337 336 334 333 334 332 331 332 331
44 37 35 35 35 30 21 16 16 17 16 12 8 6 5 4 4 3 2 1 1 0 360 360 359 359 359 358 357 356 356 355 355 354 353 353 352 351 352 352 352 351 350 349 348 346 345 343 342 339 336 335 334 333 333 334 334 335 335 335 334 333 334 336 338 340 339 337 339 341 340 338 338 338 338 340 340 339 339 339 337 336 339 339 334 331 330 327
45 38 32 29 28 23 18 15 14 14 12 9 6 5 4 4 3 1 1 1 360 360 360 359 359 359 359 358 357 357 356 355 355 354 353 353 352 352 352 352 352 351 350 349 348 347 345 344 343 341 338 336 335 335 336 335 335 335 335 334 335 336 336 337 340 342 340 338 339 340 340 340 339 340 340 341 341 339 339 340 338 339 343 340 333 329 326 323
43 37 31 25 21 18 15 14 13 12 11 8 6 5 4 3 1 1 360 359 359 360 359 358 359 359 358 358 357 357 356 355 355 354 353 353 352 352 352 352 352 352 351 350 349 347 345 344 343 342 340 338 337 337 337 336 335 335 335 336 337 339 338 338 342 343 339 339 340 340 341 341 341 341 341 341 341 340 341 342 339 339 343 341 334 328 324 322
36 31 27 22 19 16 14 14 13 12 10 7 6 5 3 1 360 359 359 358 359 359 359 358 358 358 358 357 357 356 356 355 355 354 354 353 352 352 352 352 352 352 351 350 349 347 345 344 343 343 342 341 341 340 337 336 336 336 337 338 338 339 340 340 343 343 339 340 342 341 342 343 343 343 342 342 342 341 343 344 338 338 342 341 336 332 328 327
31 27 22 19 17 15 13 13 12 10 8 6 5 4 1 360 358 357 358 359 359 359 359 358 358 357 357 356 356 356 355 355 355 354 354 353 352 352 352 352 352 352 352 351 349 348 346 344 344 344 344 343 342 341 339 338 338 339 339 339 338 340 341 342 345 345 341 341 343 343 344 344 344 343 343 344 343 343 345 345 339 337 340 339 337 337 336 336
27 24 20 17 14 13 13 13 11 9 7 6 4 2 359 358 357 358 358 359 0 360 359 358 358 357 356 355 355 355 355 355 355 354 354 353 353 353 353 353 353 352 352 351 349 348 346 345 345 345 345 345 343 342 341 339 339 340 340 339 339 341 343 344 347 346 343 342 343 344 345 345 344 344 344 345 345 345 347 348 341 338 338 338 339 341 340 340
Height
5774 5775 5778 5780 5782 5783 5785 5786 5787 5788 5789 5789 5790 5791 5792 5792 5792 5792 5792 5792 5791 5790 5789 5788 5787 5787 5786 5784 5783 5782 5783 5783 5783 5783 5782 5782 5781 5780 5779 5779 5778 5778 5777 5776 5776 5775 5773 5772 5771 5770 5769 5768 5767 5765 5764 5763 5761 5760 5759 5757 5756 5754 5753 5751 5750 5748 5746 5745 5743 5742 5741 5740 5738 5737 5735 5732 5732 5730 5727 5726 5725 5724 5722 5721 5720 5718 5717 5715
5774 5775 5777 5779 5781 5783 5784 5786 5787 5788 5789 5789 5790 5791 5791 5792 5791 5791 5791 5791 5790 5789 5788 5787 5786 5786 5785 5784 5783 5783 5783 5783 5783 5782 5782 5781 5781 5780 5779 5778 5778 5777 5776 5775 5774 5774 5772 5771 5770 5769 5767 5766 5765 5763 5762 5761 5759 5758 5757 5755 5753 5752 5750 5748 5747 5745 5744 5742 5741 5739 5738 5738 5736 5734 5732 5729 5729 5727 5724 5723 5721 5720 5719 5717 5715 5714 5712 5710
5773 5775 5777 5779 5781 5783 5784 5786 5787 5788 5789 5789 5790 5791 5791 5791 5790 5790 5790 5790 5789 5788 5787 5787 5786 5786 5785 5784 5783 5783 5783 5783 5782 5782 5781 5781 5780 5779 5778 5777 5777 5776 5775 5775 5774 5773 5772 5770 5769 5767 5766 5764 5763 5761 5760 5759 5757 5756 5755 5753 5751 5749 5748 5746 5744 5742 5741 5740 5738 5736 5735 5735 5733 5731 5729 5726 5725 5724 5721 5719 5717 5716 5714 5712 5710 5709 5707 5705
5774 5775 5777 5779 5781 5783 5784 5785 5787 5788 5789 5789 5790 5790 5790 5790 5789 5789 5789 5789 5788 5788 5787 5787 5786 5786 5785 5784 5784 5783 5783 5783 5782 5781 5781 5780 5779 5778 5777 5777 5776 5776 5775 5774 5773 5771 5770 5769 5768 5766 5765 5763 5762 5760 5759 5757 5756 5754 5753 5751 5749 5747 5745 5743 5741 5740 5739 5737 5736 5734 5732 5731 5729 5727 5725 5723 5722 5720 5718 5716 5714 5712 5710 5708 5706 5704 5702 5700
5774 5775 5777 5779 5781 5783 5784 5786 5787 5788 5789 5789 5789 5789 5789 5789 5789 5789 5788 5788 5788 5787 5787 5787 5786 5785 5785 5784 5784 5783 5783 5782 5782 5781 5780 5779 5778 5777 5777 5776 5776 5775 5774 5773 5772 5770 5769 5768 5767 5765 5764 5762 5760 5759 5757 5756 5754 5752 5751 5749 5747 5745 5742 5740 5739 5738 5737 5735 5733 5731 5729 5727 5726 5724 5722 5720 5718 5717 5715 5713 5711 5709 5706 5705 5703 5701 5699 5697
5774 5776 5778 5779 5781 5783 5785 5786 5787 5788 5788 5788 5788 5788 5788 5788 5788 5788 5788 5788 5787 5787 5787 5786 5786 5785 5785 5784 5784 5783 5782 5782 5781 5780 5780 5779 5778 5777 5777 5776 5775 5774 5773 5772 5771 5770 5769 5767 5766 5764 5762 5761 5759 5757 5755 5754 5752 5751 5749 5747 5745 5743 5740 5738 5737 5735 5734 5732 5729 5727 5726 5724 5722 5720 5718 5716 5714 5712 5711 5709 5706 5704 5702 5700 5698 5697 5695 5692
5774 5776 5778 5780 5782 5783 5785 5786 5787 5787 5787 5787 5788 5788 5788 5788 5788 5788 5788 5787 5787 5787 5786 5786 5785 5785 5784 5784 5783 5783 5782 5782 5781 5780 5780 5779 5778 5777 5776 5775 5775 5774 5773 5772 5771 5769 5768 5766 5765 5763 5761 5759 5757 5756 5754 5752 5751 5749 5747 5745 5743 5740 5738 5735 5734 5732 5731 5729 5726 5724 5723 5721 5719 5717 5715 5712 5710 5708 5705 5704 5701 5699 5697 5695 5693 5691 5689 5687
5775 5776 5778 5780 5782 5783 5785 5785 5786 5786 5787 5787 5787 5788 5788 5788 5788 5788 5787 5787 5787 5787 5786 5786 5785 5785 5785 5784 5784 5783 5782 5782 5781 5780 5779 5779 5778 5777 5776 5776 5775 5774 5772 5771 5770 5768 5766 5765 5763 5762 5760 5758 5756 5754 5752 5750 5748 5747 5744 5742 5740 5738 5735 5733 5731 5729 5728 5725 5723 5721 5720 5718 5715 5713 5711 5708 5706 5703 5701 5698 5696 5694 5692 5690 5687 5685 5684 5681
5775 5777 5779 5781 5782 5783 5784 5785 5786 5786 5787 5787 5787 5788 5788 5788 5788 5788 5787 5787 5787 5787 5786 5786 5786 5785 5785 5784 5784 5783 5782 5782 5781 5780 5780 5779 5778 5777 5776 5775 5774 5773 5772 5770 5769 5767 5766 5764 5762 5760 5759 5757 5755 5752 5751 5748 5746 5745 5742 5740 5738 5736 5733 5730 5728 5727 5725 5722 5720 5718 5716 5714 5712 5709 5706 5704 5701 5699 5696 5694 5691 5689 5686 5684 5682 5680 5678 5676
5775 5777 5779 5781 5782 5783 5784 5785 5786 5786 5787 5787 5787 5788 5788 5788 5788 5788 5788 5787 5787 5787 5787 5786 5786 5786 5785 5785 5784 5783 5782 5782 5781 5781 5780 5779 5778 5777 5776 5775 5774 5772 5771 5769 5768 5766 5765 5763 5761 5759 5757 5755 5753 5751 5749 5747 5745 5742 5740 5738 5736 5734 5731 5728 5726 5724 5722 5719 5717 5714 5712 5711 5708 5704 5702 5699 5697 5694 5692 5689 5686 5684 5681 5679 5676 5674 5672 5670
5776 5778 5780 5781 5782 5783 5784 5785 5786 5786 5787 5787 5788 5788 5788 5788 5788 5788 5788 5788 5787 5787 5787 5787 5787 5786 5785 5785 5784 5783 5783 5782 5782 5781 5780 5779 5778 5777 5776 5775 5773 5772 5770 5769 5767 5765 5763 5762 5760 5758 5756 5754 5751 5749 5747 5745 5743 5740 5738 5735 5733 5731 5728 5725 5722 5720 5718 5715 5713 5711 5709 5708 5704 5700 5698 5695 5692 5689 5686 5684 5681 5679 5676 5673 5671 5668 5666 5663
5777 5779 5780 5781 5782 5783 5784 5785 5786 5787 5787 5787 5788 5788 5788 5788 5788 5788 5788 5788 5788 5788 5788 5787 5787 5786 5785 5785 5784 5784 5783 5783 5782 5781 5780 5779 5778 5777 5776 5774 5773 5771 5770 5768 5766 5764 5763 5761 5759 5757 5755 5753 5750 5748 5746 5743 5740 5738 5735 5733 5730 5728 5725 5722 5719 5716 5713 5711 5709 5706 5705 5704 5701 5696 5694 5691 5687 5684 5682 5679 5676 5673 5671 5668 5665 5663 5660 5657
5778 5779 5780 5782 5783 5784 5785 5786 5786 5787 5787 5788 5788 5788 5789 5789 5789 5789 5789 5789 5789 5788 5788 5788 5787 5787 5786 5786 5785 5784 5784 5783 5783 5782 5780 5779 5778 5777 5775 5774 5772 5771 5769 5767 5765 5764 5762 5760 5758 5756 5754 5751 5749 5746 5744 5741 5738 5735 5732 5730 5727 5724 5722 5719 5716 5713 5710 5707 5704 5702 5699 5699 5697 5692 5690 5687 5683 5680 5677 5674 5671 5668 5665 5663 5660 5657 5654 5652
5778 5780 5781 5782 5783 5784 5785 5786 5787 5788 5788 5788 5789 5789 5789 5789 5789 5790 5790 5790 5789 5789 5789 5788 5788 5787 5787 5787 5786 5785 5784 5784 5783 5782 5780 5779 5778 5776 5775 5773 5772 5770 5768 5766 5765 5763 5761 5759 5757 5754 5752 5749 5747 5744 5741 5738 5736 5733 5730 5727 5723 5721 5719 5717 5714 5711 5708 5704 5701 5698 5695 5694 5693 5689 5685 5683 5679 5676 5673 5670 5666 5663 5660 5657 5654 5651 5649 5646
5779 5780 5781 5783 5784 5785 5786 5787 5788 5788 5789 5789 5789 5790 5790 5790 5790 5790 5791 5790 5790 5790 5790 5789 5789 5788 5788 5787 5786 5786 5785 5784 5783 5781 5780 5779 5777 5776 5774 5773 5771 5769 5767 5766 5764 5762 5760 5757 5755 5752 5749 5747 5744 5741 5739 5736 5733 5730 5727 5724 5721 5719 5717 5715 5712 5709 5707 5703 5700 5696 5692 5689 5688 5685 5682 5678 5675 5671 5668 5664 5661 5658 5654 5651 5648 5645 5642 5639
5779 5781 5782 5783 5785 5786 5787 5788 5788 5789 5789 5790 5790 5791 5791 5791 5791 5792 5792 5792 5792 5791 5791 5790 5790 5789 5789 5788 5787 5786 5785 5784 5783 5781 5780 5778 5777 5776 5774 5772 5770 5768 5766 5764 5762 5760 5758 5755 5753 5750 5747 5744 5742 5739 5736 5733 5730 5727 5724 5722 5719 5717 5715 5712 5710 5707 5704 5701 5697 5694 5690 5686 5684 5681 5677 5673 5669 5666 5662 5658 5655 5652 5648 5645 5642 5638 5635 5632
5780 5782 5783 5784 5785 5786 5787 5788 5789 5790 5791 5791 5792 5792 5792 5792 5793 5793 5793 5793 5793 5792 5792 5791 5791 5790 5789 5789 5788 5786 5785 5784 5783 5781 5780 5778 5777 5775 5773 5771 5769 5767 5765 5763 5760 5758 5756 5753 5750 5748 5745 5742 5739 5736 5733 5731 5728 5726 5723 5720 5717 5714 5711 5708 5705 5703 5700 5697 5694 5690 5686 5683 5680 5676 5672 5668 5664 5660 5657 5653 5650 5646 5642 5639 5635 5631 5628 5625
5781 5783 5784 5785 5786 5787 5789 5790 5791 5791 5792 5792 5793 5793 5794 5794 5794 5794 5794 5794 5794 5793 5793 5792 5792 5790 5790 5789 5788 5786 5785 5784 5783 5781 5780 5778 5776 5774 5772 5770 5768 5766 5763 5761 5759 5756 5754 5751 5748 5745 5742 5739 5737 5734 5732 5729 5726 5724 5720 5717 5714 5711 5707 5704 5701 5698 5696 5694 5690 5687 5683 5679 5676 5672 5667 5663 5659 5655 5651 5647 5644 5640 5636 5632 5628 5625 5621 5617
5782 5784 5785 5786 5788 5789 5790 5792 5792 5793 5794 5794 5794 5795 5795 5796 5796 5796 5795 5795 5795 5794 5794 5793 5792 5791 5790 5789 5788 5787 5786 5784 5783 5781 5780 5778 5776 5773 5771 5769 5767 5764 5762 5759 5757 5754 5751 5748 5746 5743 5740 5737 5735 5732 5729 5726 5723 5720 5716 5713 5710 5707 5704 5701 5697 5694 5692 5690 5687 5683 5679 5674 5670 5666 5661 5657 5653 5649 5645 5641 5637 5632 5628 5624 5620 5616 5612 5607
5783 5785 5786 5788 5790 5791 5792 5793 5794 5795 5795 5796 5796 5797 5797 5797 5797 5797 5797 5796 5795 5795 5794 5793 5792 5792 5791 5790 5789 5788 5786 5784 5783 5781 5779 5777 5775 5772 5770 5768 5765 5762 5760 5757 5754 5752 5749 5746 5743 5740 5737 5735 5732 5729 5725 5722 5720 5716 5713 5710 5706 5703 5701 5697 5694 5691 5687 5685 5682 5678 5674 5669 5664 5660 5655 5650 5646 5642 5637 5633 5629 5624 5619 5615 5611 5606 5602 5597
5785 5786 5788 5790 5792 5793 5794 5795 5796 5796 5797 5798 5798 5798 5798 5798 5798 5798 5797 5796 5796 5796 5795 5794 5794 5793 5792 5790 5789 5787 5786 5785 5783 5781 5778 5776 5773 5771 5768 5766 5763 5760 5758 5755 5752 5750 5747 5744 5740 5738 5735 5732 5728 5725 5722 5719 5716 5713 5710 5706 5703 5700 5697 5694 5690 5687 5683 5679 5676 5672 5668 5664 5659 5655 5650 5644 5639 5634 5630 5625 5620 5616 5611 5606 5601 5597 5592 5587
5787 5789 5790 5792 5793 5795 5796 5797 5798 5798 5799 5799 5799 5799 5799 5799 5799 5799 5798 5797 5797 5797 5796 5796 5795 5793 5792 5791 5789 5788 5786 5784 5781 5779 5777 5774 5772 5769 5767 5764 5761 5758 5756 5753 5750 5747 5744 5741 5738 5735 5732 5728 5725 5722 5719 5716 5713 5710 5706 5703 5700 5696 5693 5691 5686 5682 5676 5672 5669 5665 5662 5658 5654 5650 5645 5639 5634 5628 5623 5618 5613 5608 5602 5597 5592 5586 5582 5577
5789 5791 5793 5794 5795 5797 5798 5799 5799 5800 5800 5801 5801 5801 5801 5800 5800 5799 5799 5798 5798 5798 5797 5797 5795 5794 5792 5791 5789 5787 5785 5783 5781 5778 5776 5773 5771 5768 5765 5762 5759 5757 5754 5751 5747 5744 5741 5738 5735 5732 5729 5726 5723 5719 5716 5713 5710 5707 5703 5700 5697 5692 5688 5685 5682 5677 5671 5666 5663 5659 5657 5654 5647 5644 5640 5633 5628 5622 5616 5610 5605 5600 5594 5589 5583 5577 5573 5568
5792 5794 5795 5796 5798 5799 5800 5800 5801 5802 5802 5802 5802 5802 5801 5801 5801 5800 5800 5800 5799 5799 5798 5797 5796 5794 5793 5791 5789 5786 5784 5783 5780 5778 5775 5772 5769 5766 5763 5760 5757 5755 5752 5748 5745 5742 5739 5736 5732 5729 5726 5723 5720 5716 5713 5710 5706 5703 5700 5696 5693 5689 5684 5679 5676 5672 5667 5662 5657 5651 5648 5647 5641 5636 5634 5627 5619 5614 5608 5601 5596 5591 5586 5580 5574 5568 5562 5557
5795 5796 5798 5799 5800 5801 5801 5802 5802 5803 5804 5804 5803 5803 5802 5802 5802 5802 5802 5801 5801 5800 5799 5798 5796 5794 5793 5791 5788 5786 5784 5782 5779 5776 5773 5770 5767 5764 5761 5758 5755 5752 5749 5746 5743 5740 5736 5733 5730 5727 5724 5720 5717 5714 5710 5707 5703 5700 5697 5693 5688 5684 5681 5676 5670 5666 5662 5656 5651 5644 5638 5639 5635 5626 5622 5618 5610 5604 5599 5592 5587 5581 5575 5570 5564 5557 5551 5544
5798 5799 5800 5801 5802 5802 5803 5804 5804 5805 5805 5805 5805 5804 5804 5804 5804 5803 5803 5803 5802 5800 5799 5798 5796 5794 5793 5790 5788 5786 5783 5780 5777 5774 5771 5768 5765 5763 5760 5757 5754 5750 5747 5744 5741 5737 5734 5731 5728 5724 5721 5717 5714 5711 5707 5704 5701 5697 5692 5688 5684 5679 5675 5671 5666 5661 5657 5652 5647 5640 5632 5628 5627 5618 5611 5609 5602 5596 5591 5584 5578 5573 5566 5560 5553 5546 5540 5533
5800 5801 5802 5803 5804 5804 5805 5805 5806 5806 5806 5806 5806 5806 5806 5805 5805 5805 5804 5804 5802 5800 5799 5798 5796 5795 5792 5790 5788 5785 5782 5779 5776 5773 5769 5767 5764 5761 5758 5755 5752 5748 5745 5741 5738 5735 5732 5728 5725 5722 5718 5714 5711 5708 5705 5701 5697 5693 5688 5684 5679 5675 5670 5666 5663 5658 5654 5649 5641 5634 5625 5618 5618 5613 5603 5600 5594 5586 5582 5575 5569 5564 5557 5550 5543 5536 5529 5522
5803 5803 5804 5805 5805 5806 5807 5807 5807 5808 5808 5808 5808 5808 5807 5807 5806 5806 5805 5804 5802 5800 5799 5798 5796 5794 5792 5789 5786 5783 5780 5777 5774 5771 5768 5765 5762 5759 5756 5753 5749 5746 5743 5739 5736 5732 5729 5726 5722 5719 5715 5711 5708 5704 5700 5696 5692 5688 5684 5680 5675 5671 5667 5662 5658 5653 5648 5644 5637 5629 5620 5610 5610 5609 5597 5591 5586 5577 5571 5565 5559 5554 5547 5540 5533 5525 5518 5510
5805 5805 5806 5807 5807 5808 5809 5809 5809 5810 5810 5810 5809 5809 5808 5808 5807 5806 5805 5804 5802 5801 5799 5798 5795 5793 5790 5787 5785 5782 5779 5776 5773 5770 5767 5764 5761 5757 5754 5750 5747 5744 5741 5738 5734 5730 5726 5723 5719 5716 5712 5708 5704 5700 5696 5692 5688 5684 5680 5676 5671 5666 5662 5657 5652 5647 5642 5640 5634 5627 5619 5605 5601 5605 5595 5582 5575 5567 5560 5553 5547 5541 5534 5526 5519 5511 5503 5494
5807 5807 5808 5809 5810 5810 5811 5811 5811 5811 5811 5811 5811 5810 5810 5809 5808 5807 5806 5804 5803 5801 5799 5797 5794 5792 5789 5786 5784 5781 5778 5775 5772 5769 5765 5762 5759 5755 5752 5748 5744 5742 5739 5736 5732 5728 5724 5720 5717 5713 5708 5704 5700 5696 5692 5688 5684 5680 5675 5671 5666 5660 5655 5650 5645 5641 5638 5637 5634 5626 5618 5605 5594 5595 5591 5579 5569 5560 5552 5544 5537 5529 5520 5512 5505 5497 5488 5478
5809 5810 5810 5811 5812 5812 5813 5813 5813 5813 5813 5812 5812 5811 5811 5810 5809 5807 5806 5805 5803 5801 5799 5797 5794 5791 5789 5786 5783 5780 5777 5774 5771 5768 5764 5761 5757 5754 5750 5746 5743 5739 5736 5732 5729 5725 5721 5717 5714 5710 5705 5701 5697 5692 5688 5683 5678 5674 5669 5663 5660 5656 5651 5646 5640 5637 5633 5631 5629 5622 5613 5604 5592 5586 5583 5576 5566 5556 5548 5539 5529 5520 5509 5501 5494 5486 5475 5463
5811 5812 5813 5813 5814 5814 5815 5815 5815 5815 5814 5814 5813 5812 5811 5810 5809 5808 5806 5805 5803 5801 5799 5797 5794 5791 5788 5785 5782 5779 5776 5773 5770 5767 5763 5760 5756 5752 5748 5745 5741 5737 5733 5729 5725 5722 5718 5714 5710 5706 5702 5696 5691 5687 5682 5677 5673 5668 5663 5658 5653 5649 5646 5641 5635 5631 5628 5625 5623 5615 5605 5598 5591 5584 5577 5569 5560 5550 5541 5530 5518 5508 5497 5489 5482 5474 5462 5450
5813 5814 5815 5815 5816 5816 5816 5817 5816 5816 5816 5815 5814 5813 5812 5811 5810 5809 5807 5805 5803 5801 5799 5796 5794 5791 5787 5784 5781 5778 5775 5772 5769 5765 5762 5758 5754 5751 5747 5743 5739 5735 5731 5727 5723 5719 5715 5711 5706 5701 5697 5692 5686 5681 5676 5672 5667 5663 5657 5651 5646 5640 5636 5631 5625 5619 5616 5615 5614 5608 5597 5587 5582 5578 5570 5560 5551 5540 5531 5521 5508 5496 5486 5478 5471 5461 5450 5440
5815 5816 5817 5818 5818 5818 5818 5818 5818 5817 5817 5816 5815 5814 5813 5811 5811 5810 5807 5805 5803 5800 5798 5795 5792 5789 5786 5783 5780 5777 5774 5770 5767 5763 5760 5756 5752 5749 5745 5741 5737 5733 5729 5725 5720 5716 5711 5707 5703 5698 5693 5688 5683 5678 5673 5668 5662 5658 5653 5647 5642 5635 5629 5623 5616 5610 5602 5599 5600 5596 5588 5577 5569 5566 5560 5550 5541 5530 5520 5510 5498 5487 5478 5470 5461 5450 5438 5428
5817 5818 5819 5820 5820 5820 5820 5820 5819 5819 5818 5817 5817 5815 5813 5812 5811 5810 5807 5805 5803 5800 5797 5794 5791 5788 5785 5782 5779 5775 5772 5769 5765 5762 5758 5755 5751 5748 5744 5740 5736 5731 5727 5722 5718 5713 5708 5704 5700 5695 5691 5686 5681 5676 5671 5666 5659 5654 5649 5644 5638 5633 5627 5621 5614 5607 5596 5589 5588 5586 5581 5574 5566 5559 5549 5538 5529 5518 5507 5496 5484 5473 5464 5456 5446 5435 5425 5416
5820 5821 5821 5822 5822 5822 5821 5821 5821 5820 5818 5818 5817 5815 5814 5813 5812 5809 5807 5805 5802 5799 5797 5794 5790 5787 5784 5781 5777 5774 5771 5767 5764 5761 5757 5754 5750 5746 5742 5738 5734 5729 5725 5720 5716 5711 5707 5702 5697 5693 5689 5684 5678 5672 5667 5663 5658 5651 5645 5640 5635 5629 5622 5615 5609 5603 5594 5585 5581 5577 5571 5566 5559 5549 5538 5526 5515 5505 5494 5483 5470 5459 5450 5442 5433 5421 5411 5403
5822 5823 5823 5823 5823 5823 5823 5823 5822 5820 5820 5819 5817 5815 5815 5814 5812 5809 5807 5805 5802 5799 5796 5793 5790 5786 5783 5779 5776 5773 5769 5766 5763 5759 5755 5752 5748 5744 5740 5736 5731 5727 5723 5718 5714 5709 5705 5701 5696 5691 5686 5681 5676 5670 5665 5661 5655 5647 5641 5636 5631 5624 5616 5607 5599 5593 5587 5577 5571 5568 5561 5552 5546 5537 5527 5518 5506 5493 5482 5469 5458 5449 5440 5430 5420 5409 5400 5393
5824 5825 5825 5825 5825 5824 5824 5823 5822 5822 5821 5819 5817 5817 5816 5814 5811 5809 5807 5804 5802 5799 5795 5792 5788 5785 5781 5778 5775 5772 5768 5765 5761 5758 5754 5750 5746 5742 5738 5734 5729 5725 5720 5716 5711 5707 5702 5698 5694 5688 5683 5678 5673 5667 5661 5656 5651 5644 5638 5632 5625 5617 5610 5605 5596 5586 5578 5568 5559 5556 5554 5548 5539 5528 5516 5507 5495 5482 5470 5459 5448 5440 5430 5418 5408 5399 5391 5384
5827 5827 5827 5826 5826 5825 5824 5824 5824 5823 5820 5818 5818 5818 5816 5814 5811 5809 5807 5804 5801 5798 5794 5791 5787 5784 5781 5777 5774 5771 5767 5764 5760 5756 5752 5748 5744 5740 5736 5731 5727 5723 5718 5713 5709 5704 5699 5695 5691 5686 5680 5674 5669 5663 5656 5651 5647 5641 5634 5627 5620 5613 5605 5601 5597 5586 5575 5564 5550 5542 5542 5542 5532 5519 5507 5496 5484 5472 5460 5449 5439 5429 5419 5409 5399 5391 5383 5376
5828 5828 5828 5828 5827 5826 5826 5827 5825 5822 5820 5820 5820 5818 5816 5814 5811 5809 5806 5803 5800 5797 5793 5790 5787 5783 5780 5776 5773 5769 5766 5762 5759 5755 5751 5747 5743 5739 5734 5729 5725 5720 5716 5711 5707 5702 5697 5692 5688 5684 5679 5672 5666 5661 5655 5649 5643 5637 5630 5622 5615 5609 5602 5596 5593 5587 5575 5563 5548 5532 5529 5533 5524 5509 5498 5487 5477 5467 5453 5438 5429 5419 5410 5400 5391 5383 5375 5368
5830 5829 5830 5829 5828 5828 5828 5827 5824 5822 5822 5822 5820 5818 5816 5813 5811 5808 5806 5803 5799 5796 5793 5789 5786 5782 5779 5775 5772 5768 5764 5761 5757 5753 5749 5745 5741 5736 5732 5727 5723 5718 5714 5709 5704 5700 5695 5689 5684 5680 5676 5672 5666 5660 5655 5649 5641 5634 5628 5620 5611 5604 5596 5588 5583 5582 5576 5565 5552 5532 5522 5524 5515 5498 5491 5482 5470 5459 5445 5430 5420 5410 5400 5391 5382 5375 5369 5362
5831 5831 5831 5830 5829 5829 5828 5825 5824 5824 5824 5822 5820 5818 5816 5813 5810 5808 5805 5802 5799 5795 5792 5788 5785 5781 5778 5774 5770 5767 5763 5759 5756 5752 5748 5743 5739 5734 5730 5726 5721 5717 5712 5707 5702 5697 5692 5687 5682 5677 5672 5667 5662 5657 5651 5645 5637 5629 5622 5616 5610 5601 5592 5583 5573 5568 5565 5560 5552 5535 5520 5518 5513 5496 5484 5475 5462 5450 5437 5423 5412 5401 5391 5382 5374 5369 5364 5359
5832 5832 5832 5831 5830 5829 5827 5826 5827 5826 5824 5822 5820 5818 5815 5813 5810 5807 5804 5801 5798 5794 5791 5787 5784 5781 5777 5773 5770 5766 5762 5758 5754 5750 5746 5742 5737 5733 5728 5724 5719 5715 5710 5705 5699 5693 5688 5683 5679 5675 5672 5667 5662 5656 5650 5644 5636 5627 5619 5612 5606 5599 5591 5583 5572 5562 5554 5546 5539 5526 5511 5508 5507 5492 5476 5466 5455 5443 5428 5414 5403 5393 5384 5376 5368 5363 5359 5355
5834 5833 5832 5832 5831 5829 5828 5828 5828 5826 5824 5822 5820 5817 5815 5812 5809 5806 5803 5800 5797 5793 5790 5786 5783 5780 5776 5773 5769 5765 5761 5757 5753 5749 5745 5740 5735 5731 5726 5722 5717 5712 5708 5702 5696 5690 5684 5678 5671 5667 5664 5661 5657 5652 5646 5641 5635 5627 5619 5610 5602 5594 5586 5579 5572 5562 5550 5539 5531 5518 5502 5497 5495 5482 5467 5458 5447 5433 5420 5408 5398 5387 5378 5370 5363 5359 5355 5352
5835 5834 5833 5832 5831 5830 5829 5830 5828 5826 5824 5822 5819 5816 5814 5811 5809 5806 5802 5799 5796 5792 5789 5786 5782 5779 5775 5772 5768 5764 5760 5756 5751 5747 5743 5738 5734 5729 5724 5720 5715 5710 5705 5699 5693 5687 5681 5675 5667 5659 5652 5647 5643 5638 5633 5629 5625 5621 5615 5606 5596 5588 5581 5574 5566 5556 5544 5534 5529 5517 5495 5485 5484 5473 5458 5448 5436 5421 5409 5400 5391 5382 5374 5366 5359 5355 5352 5349
5836 5835 5834 5833 5832 5831 5831 5830 5828 5826 5824 5821 5819 5816 5813 5811 5808 5805 5802 5798 5795 5792 5788 5785 5781 5778 5774 5770 5767 5763 5759 5755 5750 5745 5741 5736 5732 5727 5722 5717 5712 5707 5702 5696 5691 5685 5679 5673 5666 5659 5651 5644 5638 5634 5629 5624 5619 5614 5609 5603 5593 5583 5575 5568 5560 5551 5539 5526 5520 5514 5494 5476 5472 5463 5447 5436 5426 5412 5400 5390 5382 5376 5369 5362 5356 5351 5349 5346
5837 5836 5835 5834 5833 5833 5832 5830 5828 5826 5823 5821 5818 5815 5813 5810 5807 5804 5801 5798 5794 5791 5787 5784 5780 5777 5773 5769 5765 5761 5757 5753 5748 5744 5739 5734 5729 5724 5719 5714 5709 5704 5699 5694 5688 5682 5676 5671 5665 5659 5652 5645 5639 5633 5628 5621 5615 5609 5603 5598 5592 5582 5570 5561 5554 5544 5533 5518 5507 5505 5495 5477 5464 5453 5437 5424 5414 5402 5392 5384 5375 5369 5364 5358 5353 5349 5346 5344
5838 5837 5837 5835 5834 5833 5831 5830 5828 5825 5823 5820 5818 5815 5812 5809 5806 5803 5800 5797 5794 5790 5786 5783 5780 5776 5772 5768 5764 5760 5755 5751 5746 5741 5737 5732 5727 5722 5717 5712 5707 5702 5696 5691 5685 5680 5674 5669 5664 5658 5652 5645 5638 5632 5625 5618 5611 5605 5600 5593 5588 5579 5567 5557 5548 5536 5526 5516 5503 5494 5488 5474 5458 5444 5430 5418 5407 5396 5387 5379 5370 5365 5362 5357 5352 5348 5345 5341
5839 5838 5837 5836 5835 5833 5831 5830 5828 5825 5823 5820 5817 5814 5811 5808 5805 5802 5799 5796 5793 5789 5786 5782 5779 5775 5772 5767 5763 5759 5754 5750 5745 5740 5735 5730 5725 5720 5715 5710 5705 5699 5694 5689 5683 5677 5671 5666 5660 5655 5650 5643 5636 5629 5622 5616 5610 5603 5597 5590 5582 5575 5564 5553 5545 5535 5522 5514 5503 5489 5479 5468 5453 5438 5425 5415 5404 5394 5385 5375 5367 5362 5360 5356 5352 5348 5343 5339
5840 5839 5838 5836 5835 5833 5832 5830 5827 5825 5823 5820 5817 5814 5811 5808 5805 5802 5799 5795 5792 5788 5785 5782 5778 5774 5770 5766 5762 5757 5753 5748 5744 5738 5733 5728 5722 5717 5712 5707 5702 5697 5691 5685 5680 5674 5668 5662 5657 5652 5648 5642 5635 5628 5620 5612 5606 5599 5592 5584 5576 5571 5562 5549 5541 5531 5516 5505 5496 5484 5470 5458 5446 5433 5421 5411 5400 5389 5380 5372 5364 5361 5358 5354 5350 5347 5342 5337
5841 5839 5838 5837 5835 5834 5832 5830 5827 5825 5822 5819 5816 5813 5810 5807 5804 5801 5798 5795 5791 5788 5784 5781 5777 5773 5769 5765 5761 5756 5752 5747 5742 5737 5731 5726 5721 5715 5710 5705 5699 5694 5688 5682 5677 5671 5665 5659 5654 5647 5642 5636 5629 5624 5617 5608 5601 5594 5585 5578 5571 5565 5558 5545 5533 5522 5506 5493 5484 5474 5461 5448 5437 5427 5416 5407 5397 5386 5376 5368 5361 5358 5355 5352 5347 5343 5338 5333
5841 5840 5838 5837 5835 5833 5831 5829 5827 5825 5822 5819 5815 5812 5809 5806 5804 5800 5797 5794 5791 5787 5784 5780 5776 5772 5768 5764 5759 5755 5750 5745 5740 5735 5729 5724 5719 5713 5707 5702 5696 5691 5685 5680 5674 5668 5661 5655 5649 5642 5636 5631 5623 5617 5610 5602 5594 5588 5581 5573 5564 5556 5548 5538 5527 5517 5504 5490 5477 5466 5455 5442 5430 5420 5410 5400 5391 5380 5371 5364 5357 5351 5348 5345 5342 5337 5332 5327